TimeIST,TemperatureF,Dew PointF,Humidity,Sea Level PressureIn,VisibilityMPH,Wind Direction,Wind SpeedMPH,Gust SpeedMPH,PrecipitationIn,Events,Conditions,WindDirDegrees,DateUTC
12:00 AM,55.4,55.4,100,29.59,0.5,SSW,10.4,-,N/A,Fog-Rain,Light Rain,210,2013-06-11 23:00:00
12:30 AM,55.4,55.4,100,29.59,0.4,SSW,11.5,-,N/A,Fog-Rain,Light Rain,210,2013-06-11 23:30:00
1:00 AM,55,55,100,29.61,0,SSW,8.9,,,Fog,Heavy Fog,210,2013-06-12 00:00:00
1:00 AM,55.4,55.4,100,29.59,0.3,SSW,9.2,-,N/A,Fog,Fog,210,2013-06-12 00:00:00
1:30 AM,55.4,55.4,100,29.59,1.5,SW,9.2,-,N/A,Rain,Light Rain,230,2013-06-12 00:30:00
2:00 AM,51.8,51.8,100,29.62,1.6,NW,12.7,-,N/A,Rain,Light Rain,320,2013-06-12 01:00:00
2:30 AM,51.8,51.8,100,29.62,6.2,NW,11.5,-,N/A,,Mostly Cloudy,320,2013-06-12 01:30:00
3:00 AM,51.8,51.8,100,29.62,6.2,NNW,12.7,-,N/A,,Mostly Cloudy,330,2013-06-12 02:00:00
3:30 AM,51.8,51.8,100,29.62,6.2,NNW,13.8,-,N/A,,Mostly Cloudy,330,2013-06-12 02:30:00
4:00 AM,50.0,50.0,100,29.65,6.2,NNW,15.0,-,N/A,,Mostly Cloudy,330,2013-06-12 03:00:00
4:30 AM,50.0,50.0,100,29.65,6.2,NW,12.7,-,N/A,,Mostly Cloudy,320,2013-06-12 03:30:00
5:00 AM,50.0,50.0,100,29.65,6.2,NNW,13.8,-,N/A,,Mostly Cloudy,330,2013-06-12 04:00:00
5:30 AM,50.0,50.0,100,29.68,6.2,NNW,16.1,-,N/A,,Mostly Cloudy,330,2013-06-12 04:30:00
6:00 AM,50.0,50.0,100,29.68,6.2,NW,11.5,-,N/A,,Mostly Cloudy,310,2013-06-12 05:00:00
6:30 AM,50.0,50.0,100,29.71,6.2,NW,11.5,-,N/A,,Mostly Cloudy,320,2013-06-12 05:30:00
7:00 AM,50,50,99,29.73,16,NW,11.2,,,,Partly Cloudy,320,2013-06-12 06:00:00
7:00 AM,50.0,50.0,100,29.71,6.2,NW,10.4,-,N/A,,Mostly Cloudy,320,2013-06-12 06:00:00
7:30 AM,50.0,50.0,100,29.71,6.2,NNW,6.9,-,N/A,,Mostly Cloudy,330,2013-06-12 06:30:00
8:00 AM,50.0,50.0,100,29.71,6.2,NW,8.1,-,N/A,,Mostly Cloudy,320,2013-06-12 07:00:00
8:30 AM,51.8,50.0,94,29.74,6.2,NW,5.8,-,N/A,,Mostly Cloudy,310,2013-06-12 07:30:00
9:00 AM,51.8,50.0,94,29.74,6.2,North,2.3,-,N/A,,Mostly Cloudy,360,2013-06-12 08:00:00
9:30 AM,51.8,51.8,100,29.71,6.2,NNW,4.6,-,N/A,,Mostly Cloudy,340,2013-06-12 08:30:00
10:00 AM,51.8,50.0,94,29.71,6.2,ENE,2.3,-,N/A,,Mostly Cloudy,60,2013-06-12 09:00:00
10:30 AM,53.6,51.8,94,29.71,6.2,SE,6.9,-,N/A,,Mostly Cloudy,140,2013-06-12 09:30:00
11:00 AM,55.4,51.8,88,29.71,6.2,ESE,6.9,-,N/A,,Mostly Cloudy,120,2013-06-12 10:00:00
11:30 AM,55.4,53.6,94,29.68,6.2,ESE,6.9,-,N/A,,Mostly Cloudy,120,2013-06-12 10:30:00
12:00 PM,55.4,53.6,94,29.68,6.2,ESE,9.2,-,N/A,,Mostly Cloudy,120,2013-06-12 11:00:00
12:30 PM,55.4,53.6,94,29.68,6.2,SSE,11.5,-,N/A,,Mostly Cloudy,150,2013-06-12 11:30:00
1:00 PM,54,52,92,29.68,16,SE,11.2,,,,Mostly Cloudy,140,2013-06-12 12:00:00
1:00 PM,53.6,51.8,94,29.65,6.2,SE,11.5,-,N/A,,Mostly Cloudy,140,2013-06-12 12:00:00
1:30 PM,53.6,53.6,100,29.65,5.6,SE,11.5,-,N/A,Rain,Light Rain,130,2013-06-12 12:30:00
2:00 PM,53.6,53.6,100,29.62,2.8,SE,13.8,-,N/A,Rain,Light Rain,130,2013-06-12 13:00:00
2:30 PM,53.6,53.6,100,29.62,2.5,SE,12.7,-,N/A,Rain,Light Rain,140,2013-06-12 13:30:00
3:00 PM,53.6,53.6,100,29.59,1.9,SE,15.0,-,N/A,Rain,Light Rain,140,2013-06-12 14:00:00
3:30 PM,53.6,53.6,100,29.59,2.5,SE,13.8,-,N/A,Rain,Light Rain,130,2013-06-12 14:30:00
4:00 PM,53.6,53.6,100,29.56,3.1,ESE,12.7,-,N/A,Rain,Light Rain,120,2013-06-12 15:00:00
4:30 PM,53.6,53.6,100,29.56,1.1,ESE,8.1,-,N/A,Rain,Rain,120,2013-06-12 15:30:00
5:00 PM,55.4,55.4,100,29.53,3.7,SSW,16.1,-,N/A,Rain,Light Rain,210,2013-06-12 16:00:00
5:30 PM,57.2,57.2,100,29.53,5.6,SSW,15.0,-,N/A,Rain,Light Rain,210,2013-06-12 16:30:00
6:00 PM,57.2,55.4,94,29.53,6.2,SSW,12.7,-,N/A,,Mostly Cloudy,210,2013-06-12 17:00:00
6:30 PM,55.4,55.4,100,29.53,6.2,SSW,16.1,-,N/A,,Mostly Cloudy,210,2013-06-12 17:30:00
7:00 PM,56,55,95,29.55,7,SSW,11.2,,,,Mist,200,2013-06-12 18:00:00
7:00 PM,57.2,55.4,94,29.53,6.2,SSW,11.5,-,N/A,,Mostly Cloudy,200,2013-06-12 18:00:00
7:30 PM,55.4,55.4,100,29.53,6.2,SSW,11.5,-,N/A,Rain,Light Rain,200,2013-06-12 18:30:00
8:00 PM,55.4,55.4,100,29.53,6.2,South,10.4,-,N/A,,Light Drizzle,190,2013-06-12 19:00:00
8:30 PM,53.6,53.6,100,29.53,2.5,South,8.1,-,N/A,Rain,Light Rain,180,2013-06-12 19:30:00
9:00 PM,53.6,53.6,100,29.53,1.6,SSW,9.2,-,N/A,Rain,Light Rain,200,2013-06-12 20:00:00
9:30 PM,53.6,53.6,100,29.53,1.6,SSW,8.1,-,N/A,Rain,Light Rain,210,2013-06-12 20:30:00
10:00 PM,53.6,53.6,100,29.53,2.2,SSW,6.9,-,N/A,,Light Drizzle,210,2013-06-12 21:00:00
10:30 PM,53.6,53.6,100,29.53,2.2,SW,5.8,-,N/A,,Mostly Cloudy,230,2013-06-12 21:30:00
11:00 PM,53.6,53.6,100,29.53,3.1,WSW,5.8,-,N/A,,Mostly Cloudy,240,2013-06-12 22:00:00
11:30 PM,53.6,53.6,100,29.56,5.6,WSW,5.8,-,N/A,,Mostly Cloudy,240,2013-06-12 22:30:00